GBOVK EGNS-EGGP

Flight info

Callsign GBOVK
Flight time 0h 37m
Altitude 7000
Route TIMIS Q39 DANDI DCT PENIL
Aircraft DA62/L-SDFGRY/C

Departure

Time 2026-05-08 20:21
Airport Isle of Man Airport (EGNS)

Arrival

Time 2026-05-08 20:58
Airport Liverpool John Lennon Airport (EGGP)
Time Latitude Longitude Altitude Speed Heading
2026-05-08 20:00 54.08474 -4.61223 16 ft 0 kts 251°
2026-05-08 20:10 54.08474 -4.61222 16 ft 0 kts 250°
2026-05-08 20:20 54.08464 -4.61294 17 ft 31 kts 257°
2026-05-08 20:20 54.08376 -4.61998 35 ft 85 kts 258°
2026-05-08 20:21 54.08193 -4.63044 337 ft 89 kts 230°
2026-05-08 20:21 54.07706 -4.63065 812 ft 73 kts 157°
2026-05-08 20:21 54.07202 -4.63017 1095 ft 75 kts 160°
2026-05-08 20:21 54.06698 -4.62857 1411 ft 75 kts 175°
2026-05-08 20:22 54.06181 -4.62701 1729 ft 75 kts 176°
2026-05-08 20:22 54.05658 -4.62560 2051 ft 76 kts 175°
2026-05-08 20:22 54.05133 -4.62426 2374 ft 77 kts 174°
2026-05-08 20:22 54.04783 -4.62342 2587 ft 77 kts 171°
2026-05-08 20:23 54.04074 -4.62160 3015 ft 77 kts 172°
2026-05-08 20:23 54.03541 -4.62027 3342 ft 78 kts 172°
2026-05-08 20:23 54.03004 -4.61894 3653 ft 78 kts 172°
2026-05-08 20:23 54.02464 -4.61759 3969 ft 79 kts 172°
2026-05-08 20:24 54.01923 -4.61625 4291 ft 79 kts 172°
2026-05-08 20:24 54.01378 -4.61489 4606 ft 79 kts 173°
2026-05-08 20:24 54.00832 -4.61351 4924 ft 80 kts 173°
2026-05-08 20:24 54.00282 -4.61213 5242 ft 80 kts 173°
2026-05-08 20:25 53.99730 -4.61075 5558 ft 80 kts 173°
2026-05-08 20:25 53.99175 -4.60935 5875 ft 81 kts 173°
2026-05-08 20:25 53.98617 -4.60796 6192 ft 81 kts 173°
2026-05-08 20:25 53.98056 -4.60655 6508 ft 82 kts 172°
2026-05-08 20:26 53.97500 -4.60517 6819 ft 82 kts 172°
2026-05-08 20:26 53.96905 -4.60373 7017 ft 101 kts 173°
2026-05-08 20:26 53.96078 -4.60176 7010 ft 137 kts 172°
2026-05-08 20:26 53.95093 -4.59683 7012 ft 161 kts 148°
2026-05-08 20:27 53.94305 -4.58203 7008 ft 176 kts 124°
2026-05-08 20:27 53.93612 -4.56429 7003 ft 185 kts 124°
2026-05-08 20:27 53.92880 -4.54590 7007 ft 190 kts 124°
2026-05-08 20:27 53.92129 -4.52736 7004 ft 192 kts 124°
2026-05-08 20:28 53.91379 -4.50889 7008 ft 194 kts 124°
2026-05-08 20:28 53.90594 -4.48958 7002 ft 192 kts 124°
2026-05-08 20:28 53.89871 -4.47172 6997 ft 177 kts 124°
2026-05-08 20:28 53.89197 -4.45510 6997 ft 166 kts 124°
2026-05-08 20:29 53.88554 -4.43930 6987 ft 160 kts 124°
2026-05-08 20:29 53.87934 -4.42406 6992 ft 155 kts 124°
2026-05-08 20:29 53.87329 -4.40921 6991 ft 152 kts 124°
2026-05-08 20:29 53.86734 -4.39458 6992 ft 150 kts 124°
2026-05-08 20:30 53.86147 -4.38020 6991 ft 148 kts 125°
2026-05-08 20:30 53.85563 -4.36588 6992 ft 147 kts 125°
2026-05-08 20:30 53.84986 -4.35172 6992 ft 146 kts 125°
2026-05-08 20:30 53.84411 -4.33763 6989 ft 146 kts 125°
2026-05-08 20:31 53.83833 -4.32348 6994 ft 146 kts 125°
2026-05-08 20:31 53.83255 -4.30934 6989 ft 146 kts 125°
2026-05-08 20:31 53.82677 -4.29521 6994 ft 146 kts 124°
2026-05-08 20:31 53.82104 -4.28119 6987 ft 146 kts 125°
2026-05-08 20:32 53.81527 -4.26709 6989 ft 146 kts 125°
2026-05-08 20:32 53.80949 -4.25299 6991 ft 146 kts 125°
2026-05-08 20:32 53.80371 -4.23889 6989 ft 146 kts 125°
2026-05-08 20:32 53.79801 -4.22499 6989 ft 146 kts 125°
2026-05-08 20:33 53.79213 -4.21067 6987 ft 145 kts 125°
2026-05-08 20:33 53.78638 -4.19664 6990 ft 145 kts 125°
2026-05-08 20:33 53.78062 -4.18261 6952 ft 148 kts 125°
2026-05-08 20:33 53.77458 -4.16794 6757 ft 159 kts 125°
2026-05-08 20:34 53.76814 -4.15227 6560 ft 165 kts 125°
2026-05-08 20:34 53.76149 -4.13611 6359 ft 169 kts 125°
2026-05-08 20:34 53.74790 -4.10313 5965 ft 173 kts 125°
2026-05-08 20:35 53.74105 -4.08652 5766 ft 174 kts 125°
2026-05-08 20:35 53.73414 -4.06976 5566 ft 174 kts 125°
2026-05-08 20:35 53.72722 -4.05300 5366 ft 174 kts 125°
2026-05-08 20:35 53.72031 -4.03627 5163 ft 173 kts 125°
2026-05-08 20:36 53.71336 -4.01948 5006 ft 171 kts 125°
2026-05-08 20:36 53.70679 -4.00360 5003 ft 161 kts 125°
2026-05-08 20:36 53.70053 -3.98849 5000 ft 154 kts 125°
2026-05-08 20:36 53.69449 -3.97390 4997 ft 149 kts 125°
2026-05-08 20:37 53.68859 -3.95965 4996 ft 146 kts 125°
2026-05-08 20:37 53.68328 -3.94544 4993 ft 145 kts 114°
2026-05-08 20:37 53.67961 -3.92956 4993 ft 143 kts 111°
2026-05-08 20:37 53.67601 -3.91433 4993 ft 142 kts 112°
2026-05-08 20:38 53.67225 -3.89854 4992 ft 142 kts 112°
2026-05-08 20:38 53.66864 -3.88338 4992 ft 141 kts 112°
2026-05-08 20:38 53.66498 -3.86807 4992 ft 141 kts 112°
2026-05-08 20:38 53.66134 -3.85280 4991 ft 140 kts 112°
2026-05-08 20:39 53.65770 -3.83756 4991 ft 140 kts 112°
2026-05-08 20:39 53.65406 -3.82232 4989 ft 140 kts 112°
2026-05-08 20:39 53.65043 -3.80712 4987 ft 140 kts 112°
2026-05-08 20:39 53.64679 -3.79191 4986 ft 140 kts 112°
2026-05-08 20:40 53.64436 -3.78176 4988 ft 142 kts 112°
2026-05-08 20:40 53.64061 -3.76614 4990 ft 145 kts 112°
2026-05-08 20:40 53.63680 -3.75026 4989 ft 147 kts 112°
2026-05-08 20:40 53.63293 -3.73414 4989 ft 149 kts 112°
2026-05-08 20:41 53.62904 -3.71792 4990 ft 150 kts 112°
2026-05-08 20:41 53.62512 -3.70162 4989 ft 150 kts 112°
2026-05-08 20:41 53.62119 -3.68525 4989 ft 151 kts 112°
2026-05-08 20:41 53.61722 -3.66887 4988 ft 151 kts 114°
2026-05-08 20:42 53.61080 -3.65501 4984 ft 151 kts 137°
2026-05-08 20:42 53.60320 -3.64285 4985 ft 151 kts 136°
2026-05-08 20:42 53.59564 -3.63055 4985 ft 151 kts 136°
2026-05-08 20:42 53.58806 -3.61823 4985 ft 151 kts 136°
2026-05-08 20:43 53.58048 -3.60594 4984 ft 151 kts 136°
2026-05-08 20:43 53.57290 -3.59366 4982 ft 151 kts 136°
2026-05-08 20:43 53.56532 -3.58137 4981 ft 151 kts 136°
2026-05-08 20:43 53.55774 -3.56908 4979 ft 151 kts 136°
2026-05-08 20:44 53.55015 -3.55680 4978 ft 151 kts 136°
2026-05-08 20:44 53.54256 -3.54451 4975 ft 151 kts 136°
2026-05-08 20:44 53.53498 -3.53226 4972 ft 151 kts 136°
2026-05-08 20:44 53.52739 -3.51999 4970 ft 151 kts 136°
2026-05-08 20:45 53.51978 -3.50770 4968 ft 151 kts 136°
2026-05-08 20:45 53.51219 -3.49544 4966 ft 151 kts 136°
2026-05-08 20:45 53.50470 -3.48334 4965 ft 151 kts 136°
2026-05-08 20:45 53.49714 -3.47116 4964 ft 151 kts 136°
2026-05-08 20:46 53.48949 -3.45883 4962 ft 151 kts 136°
2026-05-08 20:46 53.48224 -3.44605 4956 ft 152 kts 124°
2026-05-08 20:46 53.47760 -3.43011 4953 ft 152 kts 115°
2026-05-08 20:46 53.47301 -3.41414 4952 ft 152 kts 116°
2026-05-08 20:47 53.46840 -3.39819 4954 ft 152 kts 116°
2026-05-08 20:47 53.46380 -3.38222 4951 ft 152 kts 116°
2026-05-08 20:47 53.45919 -3.36628 4952 ft 152 kts 116°
2026-05-08 20:47 53.45459 -3.35035 4951 ft 152 kts 116°
2026-05-08 20:48 53.44998 -3.33439 4948 ft 152 kts 116°
2026-05-08 20:48 53.44543 -3.31864 4948 ft 152 kts 116°
2026-05-08 20:48 53.44076 -3.30252 4947 ft 152 kts 116°
2026-05-08 20:48 53.43583 -3.28717 4941 ft 152 kts 128°
2026-05-08 20:49 53.42751 -3.27644 4935 ft 152 kts 150°
2026-05-08 20:49 53.41845 -3.26745 4935 ft 151 kts 149°
2026-05-08 20:49 53.40928 -3.25826 4833 ft 157 kts 149°
2026-05-08 20:49 53.39974 -3.24867 4681 ft 159 kts 149°
2026-05-08 20:50 53.39041 -3.23928 4531 ft 154 kts 149°
2026-05-08 20:50 53.38129 -3.23012 4373 ft 151 kts 149°
2026-05-08 20:50 53.37235 -3.22115 4230 ft 149 kts 149°
2026-05-08 20:50 53.36350 -3.21228 4081 ft 147 kts 149°
2026-05-08 20:51 53.35492 -3.20367 3932 ft 146 kts 149°
2026-05-08 20:51 53.34632 -3.19506 3785 ft 145 kts 149°
2026-05-08 20:51 53.33741 -3.18611 3628 ft 145 kts 149°
2026-05-08 20:51 53.32879 -3.17748 3477 ft 144 kts 149°
2026-05-08 20:52 53.32182 -3.16558 3287 ft 147 kts 118°
2026-05-08 20:52 53.31943 -3.14907 3088 ft 148 kts 88°
2026-05-08 20:52 53.32031 -3.13185 2891 ft 149 kts 85°
2026-05-08 20:52 53.32117 -3.11487 2686 ft 141 kts 85°
2026-05-08 20:53 53.32190 -3.09987 2510 ft 113 kts 85°
2026-05-08 20:53 53.32243 -3.08886 2480 ft 81 kts 85°
2026-05-08 20:53 53.32286 -3.08024 2438 ft 73 kts 85°
2026-05-08 20:53 53.32325 -3.07178 2408 ft 73 kts 84°
2026-05-08 20:54 53.32366 -3.06268 2367 ft 85 kts 85°
2026-05-08 20:54 53.32415 -3.05204 2259 ft 97 kts 85°
2026-05-08 20:54 53.32471 -3.04040 2122 ft 102 kts 85°
2026-05-08 20:54 53.32528 -3.02841 1981 ft 104 kts 85°
2026-05-08 20:55 53.32586 -3.01633 1840 ft 104 kts 85°
2026-05-08 20:55 53.32643 -3.00423 1701 ft 104 kts 85°
2026-05-08 20:55 53.32700 -2.99214 1562 ft 104 kts 85°
2026-05-08 20:55 53.32757 -2.98007 1424 ft 104 kts 85°
2026-05-08 20:56 53.32814 -2.96804 1288 ft 103 kts 85°
2026-05-08 20:56 53.32870 -2.95605 1148 ft 103 kts 85°
2026-05-08 20:56 53.32926 -2.94411 1011 ft 103 kts 85°
2026-05-08 20:56 53.32981 -2.93220 875 ft 103 kts 85°
2026-05-08 20:57 53.33036 -2.92033 738 ft 102 kts 85°
2026-05-08 20:57 53.33091 -2.90850 602 ft 102 kts 85°
2026-05-08 20:57 53.33145 -2.89672 468 ft 102 kts 88°
2026-05-08 20:57 53.33204 -2.88496 333 ft 101 kts 83°
2026-05-08 20:58 53.33264 -2.87324 205 ft 100 kts 85°
2026-05-08 20:58 53.33306 -2.86301 82 ft 69 kts 87°
2026-05-08 20:58 53.33328 -2.85794 85 ft 31 kts 86°
2026-05-08 20:58 53.33342 -2.85499 85 ft 21 kts 88°
2026-05-08 20:59 53.33353 -2.85269 87 ft 19 kts 85°
2026-05-08 20:59 53.33363 -2.85057 84 ft 18 kts 87°
2026-05-08 20:59 53.33375 -2.84861 84 ft 16 kts 85°
2026-05-08 20:59 53.33388 -2.84681 83 ft 15 kts 78°
2026-05-08 21:00 53.33424 -2.84524 84 ft 13 kts 62°
2026-05-08 21:00 53.33464 -2.84406 85 ft 10 kts 57°
2026-05-08 21:00 53.33499 -2.84306 86 ft 10 kts 57°
2026-05-08 21:00 53.33535 -2.84203 85 ft 10 kts 62°
2026-05-08 21:01 53.33566 -2.84103 84 ft 10 kts 75°
2026-05-08 21:01 53.33576 -2.83985 84 ft 10 kts 84°
2026-05-08 21:01 53.33582 -2.83862 84 ft 11 kts 85°
2026-05-08 21:01 53.33623 -2.83799 84 ft 9 kts 357°
2026-05-08 21:02 53.33665 -2.83758 84 ft 7 kts 353°
2026-05-08 21:02 53.33671 -2.83763 84 ft 0 kts 293°